ONEWEB-0012, 44057

Orbit data source: Space-Track

ONEWEB-0012, 44057 is a payload satellite owned by One Web (UK) in LEO that was launched on Wed, 27 Feb 2019 UTC via a SOYUZ-ST-B launch vehicle from the French Guiana (FRGUI). Payload-class satellites include a variety of spacecraft equipped with specific instruments for various scientific and technological missions. These include communications satellites like Starlink; space stations such as the ISS; scientific satellites like the Hubble; Earth observation satellites from companies like Planet Labs, Umbra, and HawkEye 360; GPS; miniature CubeSats for education and research; and military/defense satellites.

Loading next visibility...
Identifier
44057, 2019-010A
Orbit
LEO
Country
Flag of UKUK
Related business
Manufacturer
Airbus/Toulouse
Mission
Operational Commercial Communications
Bus & Motor
ARROW, Unknown motor
Mass
148 kg wet, ~140 kg dry
Launch date (UTC)
2019-02-27 (7 years ago)
Launch vehicle
SOYUZ-ST-B
Launch site
French Guiana (FRGUI)
Object type
Payload
Rocket body
Debris
Shape & HBR
Trap Box + 2 Pan, 6.7 m
Radar Cross Section
3.464 m², Large (>1 m²)

Expand to show TLE details & history
Last TLE update: 7 hours ago

TLE from 7 hours ago
0 ONEWEB-0012
1 44057U 19010A   26128.27878279  .00000081  00000-0  17760-3 0  9993
2 44057  87.9099 236.7092 0002370 101.2438 258.8960 13.16594846346316
Epoch: 2026-05-08T06:41Z
TLE epoch observation values (Epoch: 2026-05-08T06:41:26.833Z)
Latitude
0.00006°
Longitude
-89.76546°
Altitude
1,200.998 km
Speed
7.253 km/s
True Right ascension
15h 46m 50s
True Declination
0° 00' 00"
Sunlit
Object was in full shadow at epoch
Visualization orbit readout
Latitude
Unknown
Longitude
Unknown
Altitude
Unknown
Speed
Unknown
Apparent Right ascension
Unknown
Apparent Declination
Unknown
Sunlit
N/A
Visualization observer readout
Local Sidereal Time
21:33:34
Azimuth
Unknown
Elevation
Unknown
Doppler factor
Unknown
Orbital elements
Apogee altitude
1,196.66 km
Perigee altitude
1,193.07 km
Semi-major axis
7,573.002 km
Eccentricity
0.00024
Inclination
87.9099°
RAAN
236.7092°
Arg. of periapsis
101.2438°
True anomaly
258.86935°
Mean anomaly
258.896°
Eccentric anomaly
258.88268°
Mean motion
3.29337 °/min
Orbital period
109.31 mins
BSTAR
0.0001776
Loading maneuver chart data...
Computing Atmospheric mass density...
Loading historical data...
Loading historical data...
Loading historical data...
Loading historical data...
Loading historical data...
Loading historical data...
Loading historical data...
Other satellites on launch #10 in the year 2019 (2019-02-27 UTC)

Documentation

Showing up to 5 results
|